TimeCST,TemperatureF,Dew PointF,Humidity,Sea Level PressureIn,VisibilityMPH,Wind Direction,Wind SpeedMPH,Gust SpeedMPH,PrecipitationIn,Events,Conditions,WindDirDegrees,DateUTC
12:53 AM,30.9,24.1,76,30.31,10.0,WNW,9.2,-,N/A,,Clear,300,2013-01-06 06:53:00
1:53 AM,28.9,23.0,78,30.32,10.0,NW,9.2,-,N/A,,Clear,310,2013-01-06 07:53:00
2:53 AM,27.0,21.0,78,30.34,10.0,WNW,6.9,-,N/A,,Clear,290,2013-01-06 08:53:00
3:53 AM,26.1,19.9,78,30.35,10.0,NW,8.1,-,N/A,,Clear,310,2013-01-06 09:53:00
4:53 AM,26.1,19.9,78,30.36,10.0,NW,9.2,-,N/A,,Clear,320,2013-01-06 10:53:00
5:53 AM,26.1,19.9,78,30.37,10.0,NW,10.4,-,N/A,,Clear,320,2013-01-06 11:53:00
6:53 AM,26.1,19.9,78,30.39,10.0,NNW,10.4,-,N/A,,Clear,330,2013-01-06 12:53:00
7:53 AM,25.0,19.9,81,30.41,10.0,NNW,6.9,-,N/A,,Clear,340,2013-01-06 13:53:00
8:53 AM,28.9,21.0,72,30.43,10.0,NW,4.6,-,N/A,,Clear,320,2013-01-06 14:53:00
9:53 AM,32.0,23.0,69,30.45,10.0,NW,4.6,-,N/A,,Clear,310,2013-01-06 15:53:00
10:53 AM,37.0,21.9,54,30.44,10.0,NNW,3.5,-,N/A,,Clear,330,2013-01-06 16:53:00
11:53 AM,42.1,21.0,43,30.42,10.0,Calm,Calm,-,N/A,,Clear,0,2013-01-06 17:53:00
12:53 PM,45.0,21.0,39,30.38,10.0,Variable,3.5,-,N/A,,Clear,0,2013-01-06 18:53:00
1:53 PM,46.9,21.0,36,30.35,10.0,SSW,3.5,-,N/A,,Clear,200,2013-01-06 19:53:00
2:53 PM,50.0,19.4,30,30.30,10.0,South,6.9,-,N/A,,Clear,190,2013-01-06 20:53:00
3:53 PM,50.0,19.9,31,30.32,10.0,Variable,5.8,-,N/A,,Clear,0,2013-01-06 21:53:00
4:53 PM,46.9,21.9,37,30.32,10.0,SSW,6.9,-,N/A,,Clear,200,2013-01-06 22:53:00
5:53 PM,37.9,21.9,53,30.32,10.0,South,8.1,-,N/A,,Clear,170,2013-01-06 23:53:00
6:53 PM,34.0,23.0,64,30.32,10.0,South,9.2,-,N/A,,Clear,170,2013-01-07 00:53:00
7:53 PM,33.1,23.0,66,30.32,10.0,South,9.2,-,N/A,,Clear,170,2013-01-07 01:53:00
8:53 PM,32.0,21.2,64,30.28,10.0,South,9.2,-,N/A,,Clear,170,2013-01-07 02:53:00
9:53 PM,28.9,21.0,72,30.32,10.0,South,9.2,-,N/A,,Clear,180,2013-01-07 03:53:00
10:53 PM,33.1,23.0,66,30.30,10.0,South,11.5,-,N/A,,Clear,170,2013-01-07 04:53:00
11:53 PM,28.0,21.0,75,30.29,10.0,South,8.1,-,N/A,,Clear,170,2013-01-07 05:53:00